Regional Weather Roundup
Issued by NWS Goodland, KS

Home | Current Version | Previous Version | Graphics & Text | Print | Product List | Glossary On
Versions: 1 2 3 4 5 6 7 8 9 10 11 12 13 14 15 16 17 18 19 20 21 22 23 24 25 26 27 28 29 30 31 32 33 34 35 36 37 38 39 40 41 42 43 44 45 46 47 48 49 50
000
ASUS43 KGLD 161708
RWRGLD

GOODLAND FORECAST AREA HOURLY WEATHER ROUNDUP
NATIONAL WEATHER SERVICE GOODLAND KS
1100 AM MDT WED AUG 16 2017

...OFFICIAL OBSERVATIONS...

CITY           SKY/WX    TMP DP  RH WIND       PRES   REMARKS
GOODLAND KS    CLOUDY    70  60  70 NW15      30.01R
HILL CITY KS   CLOUDY    72  63  73 NW12      29.95S
IMPERIAL NEB   CLOUDY    72  58  61 NW15      29.99S
MCCOOK NEB     MOSUNNY   74  63  68 NW15      29.95S
AKRON CO       CLOUDY    68  50  52 N18       30.09S
BURLINGTON CO  SUNNY     72  58  61 NW18      30.05S
LIMON CO       MOSUNNY   64  53  67 NW15      30.14R
$$

...UNOFFICIAL OBSERVATIONS...

CITY           SKY/WX    TMP DP  RH WIND       PRES   REMARKS
LENORA KS        N/A     72  32  23 NW12        N/A
NORTON KS      PTSUNNY   73  57  56 NW16      29.94R
SHARON SPRINGS   N/A     73  62  68 W7          N/A
TRENTON NEB      N/A     73  32  22 N7          N/A
KIT CARSON CO    N/A     73  55  52 MISG        N/A
YUMA CO        FAIR      70  52  52 NW16G24   30.06R
$$




USA.gov is the U.S. government's official web portal to all federal, state and local government web resources and services.